Total_Precipitation_Accumulation
0.47 0.22 0.73 0.79 0.65 0.94 1.81 1.13 1.20 0.54 0.34 0.27 0.11 0.07 0.03 0.01 0.04 0.06 0.04 0.01 0.01 0.00 0.01 0.01 0.04 0.05 0.04 0.07 0.11 0.32 0.62 0.51 0.44 1.02 0.79 0.95 1.15 1.10 1.53 1.22 1.35 1.26 1.05 0.99
0.85 0.37 0.39 0.73 0.74 0.97 1.02 0.84 0.90 0.34 0.26 0.11 0.05 0.02 0.03 0.11 0.15 0.08 0.05 0.02 0.01 0.00 0.00 0.02 0.05 0.04 0.06 0.15 0.16 0.15 0.21 0.21 0.25 0.55 0.51 0.59 0.77 0.78 1.09 1.33 1.54 1.76 1.61 1.34
0.81 0.50 0.75 1.36 1.14 0.86 0.57 0.46 0.56 0.52 0.20 0.09 0.13 0.07 0.17 0.17 0.09 0.10 0.06 0.04 0.03 0.00 0.00 0.01 0.02 0.05 0.07 0.12 0.21 0.20 0.24 0.25 0.21 0.22 0.32 0.23 0.48 0.51 0.70 1.14 1.11 1.35 1.80 2.09
0.90 0.79 1.27 0.95 0.70 0.53 0.60 0.50 0.39 0.21 0.07 0.08 0.12 0.11 0.26 0.06 0.07 0.06 0.02 0.01 0.04 0.03 0.01 0.01 0.03 0.07 0.17 0.33 0.28 0.64 0.47 0.58 0.57 0.52 0.43 0.34 0.47 0.56 0.43 0.56 0.86 1.05 1.17 1.56
0.68 0.47 0.32 0.08 0.11 0.24 0.33 0.53 0.26 0.10 0.03 0.04 0.03 0.15 0.30 0.06 0.04 0.04 0.02 0.00 0.03 0.03 0.02 0.01 0.05 0.08 0.16 0.32 0.31 0.39 0.65 0.88 0.60 0.60 0.49 0.57 0.95 1.03 1.04 1.19 1.05 0.91 0.81 0.73
0.60 0.58 0.18 0.08 0.02 0.02 0.07 0.42 0.34 0.19 0.12 0.07 0.04 0.15 0.34 0.28 0.18 0.09 0.02 0.00 0.01 0.02 0.05 0.01 0.04 0.14 0.23 0.36 0.40 0.44 0.65 0.78 0.92 0.94 1.02 1.01 1.25 1.25 0.86 0.70 0.69 0.54 0.35 0.21
0.47 0.66 0.10 0.01 0.00 0.02 0.19 0.33 0.14 0.19 0.23 0.12 0.09 0.12 0.39 0.52 0.38 0.20 0.09 0.07 0.06 0.07 0.19 0.15 0.20 0.28 0.42 0.73 0.82 0.81 1.04 1.51 1.39 1.45 1.62 1.29 1.00 0.98 0.74 0.45 0.31 0.22 0.11 0.06
0.40 0.63 0.23 0.01 0.01 0.04 0.08 0.01 0.01 0.07 0.20 0.22 0.17 0.08 0.10 0.24 0.26 0.26 0.26 0.30 0.32 0.24 0.44 0.57 0.88 0.78 0.79 0.96 1.15 1.16 1.04 1.08 1.21 1.15 1.11 1.01 0.72 0.59 0.55 0.52 0.36 0.24 0.15 0.11
0.22 0.16 0.04 0.01 0.01 0.00 0.00 0.00 0.00 0.04 0.14 0.24 0.26 0.15 0.07 0.08 0.08 0.05 0.05 0.14 0.19 0.27 0.50 0.52 0.70 0.69 0.78 0.81 0.79 0.90 0.84 0.85 0.90 0.89 0.86 0.83 0.78 0.71 0.61 0.51 0.48 0.40 0.25 0.17
0.13 0.05 0.04 0.16 0.18 0.08 0.04 0.01 0.00 0.03 0.06 0.06 0.12 0.13 0.03 0.03 0.03 0.05 0.05 0.08 0.06 0.10 0.29 0.38 0.42 0.69 0.62 0.65 0.71 0.77 0.86 0.88 0.89 0.96 1.05 0.99 0.90 0.79 0.67 0.53 0.44 0.38 0.34 0.22
0.07 0.03 0.03 0.03 0.05 0.07 0.08 0.07 0.06 0.05 0.06 0.08 0.06 0.05 0.06 0.08 0.06 0.04 0.03 0.14 0.17 0.21 0.35 0.45 0.55 0.81 0.83 0.75 0.71 0.87 0.94 0.92 0.92 0.95 0.89 0.86 0.75 0.68 0.59 0.47 0.32 0.29 0.23 0.19
0.09 0.02 0.09 0.07 0.03 0.02 0.01 0.02 0.05 0.08 0.09 0.09 0.08 0.10 0.10 0.10 0.07 0.05 0.07 0.27 0.25 0.35 0.45 0.60 0.69 0.81 0.91 0.87 0.66 0.57 0.62 0.62 0.58 0.61 0.61 0.54 0.50 0.58 0.48 0.45 0.40 0.34 0.27 0.22
0.13 0.06 0.07 0.06 0.04 0.03 0.03 0.03 0.03 0.07 0.12 0.12 0.11 0.11 0.12 0.13 0.15 0.12 0.19 0.37 0.37 0.49 0.57 0.64 0.68 0.71 0.73 0.69 0.57 0.47 0.45 0.47 0.46 0.47 0.47 0.49 0.45 0.38 0.44 0.45 0.38 0.31 0.25 0.24
0.09 0.11 0.19 0.12 0.09 0.05 0.08 0.08 0.08 0.11 0.15 0.17 0.18 0.16 0.17 0.24 0.40 0.34 0.44 0.59 0.49 0.45 0.51 0.53 0.42 0.50 0.53 0.48 0.46 0.52 0.53 0.55 0.54 0.58 0.64 0.72 0.70 0.63 0.52 0.43 0.36 0.33 0.39 0.39
0.24 0.22 0.25 0.22 0.17 0.15 0.14 0.16 0.16 0.23 0.23 0.33 0.34 0.46 0.50 0.51 0.62 0.78 0.72 0.61 0.51 0.52 0.53 0.45 0.36 0.48 0.39 0.32 0.30 0.34 0.37 0.41 0.36 0.41 0.40 0.39 0.36 0.35 0.36 0.37 0.36 0.36 0.39 0.60
0.36 0.31 0.32 0.31 0.26 0.27 0.23 0.26 0.27 0.41 0.39 0.46 0.49 0.59 0.59 0.47 0.43 0.43 0.46 0.37 0.32 0.46 0.48 0.39 0.41 0.48 0.40 0.28 0.24 0.25 0.25 0.31 0.31 0.25 0.26 0.26 0.22 0.21 0.21 0.22 0.24 0.28 0.32 0.42
0.55 0.66 0.47 0.41 0.39 0.40 0.41 0.44 0.44 0.58 0.56 0.46 0.54 0.53 0.40 0.30 0.26 0.25 0.30 0.28 0.26 0.35 0.42 0.35 0.40 0.35 0.27 0.17 0.14 0.13 0.16 0.20 0.24 0.16 0.14 0.17 0.20 0.24 0.24 0.31 0.33 0.29 0.25 0.52
0.81 0.77 0.56 0.53 0.53 0.46 0.46 0.43 0.42 0.45 0.57 0.59 0.54 0.40 0.36 0.34 0.41 0.44 0.47 0.37 0.25 0.22 0.23 0.23 0.19 0.13 0.08 0.07 0.06 0.12 0.11 0.08 0.12 0.15 0.16 0.21 0.30 0.32 0.44 0.53 0.52 0.52 0.43 0.61
0.75 0.69 0.60 0.56 0.52 0.49 0.49 0.46 0.44 0.47 0.53 0.50 0.43 0.53 0.47 0.41 0.35 0.33 0.28 0.22 0.22 0.19 0.16 0.13 0.17 0.11 0.05 0.07 0.13 0.12 0.11 0.14 0.17 0.20 0.21 0.36 0.46 0.41 0.49 0.60 0.65 0.64 0.63 0.72
0.83 0.83 0.63 0.59 0.51 0.48 0.54 0.60 0.51 0.43 0.44 0.33 0.25 0.22 0.18 0.15 0.11 0.10 0.11 0.16 0.22 0.24 0.21 0.19 0.19 0.10 0.06 0.11 0.18 0.13 0.22 0.28 0.35 0.37 0.50 0.59 0.60 0.64 0.68 0.88 0.93 0.84 0.80 0.83
0.58 0.55 0.46 0.39 0.47 0.38 0.30 0.24 0.16 0.11 0.08 0.08 0.08 0.06 0.05 0.02 0.02 0.05 0.11 0.18 0.16 0.17 0.19 0.18 0.17 0.15 0.20 0.24 0.24 0.16 0.31 0.51 0.64 0.75 0.87 0.94 0.99 0.89 0.81 0.76 0.82 0.87 0.94 0.94
0.10 0.12 0.15 0.19 0.22 0.20 0.12 0.12 0.13 0.17 0.14 0.10 0.06 0.05 0.05 0.05 0.05 0.07 0.13 0.24 0.21 0.26 0.24 0.25 0.23 0.32 0.32 0.39 0.33 0.36 0.49 0.77 0.93 1.04 1.06 1.01 0.97 0.88 0.84 0.89 0.99 1.00 1.06 1.03
0.13 0.06 0.04 0.03 0.03 0.06 0.10 0.12 0.15 0.19 0.20 0.16 0.12 0.10 0.10 0.10 0.11 0.17 0.26 0.17 0.14 0.20 0.29 0.18 0.34 0.37 0.41 0.39 0.34 0.49 0.68 0.94 0.96 0.92 0.93 0.99 0.98 1.00 1.02 1.05 1.09 1.10 1.11 1.10
0.21 0.09 0.03 0.01 0.00 0.00 0.01 0.01 0.03 0.04 0.07 0.08 0.09 0.09 0.13 0.16 0.14 0.08 0.09 0.10 0.16 0.26 0.15 0.31 0.41 0.35 0.43 0.46 0.58 0.82 0.93 1.00 1.03 1.00 0.99 1.02 0.98 0.99 1.02 1.02 1.04 0.99 0.96 0.90
0.12 0.06 0.04 0.03 0.03 0.05 0.09 0.09 0.06 0.04 0.03 0.02 0.01 0.02 0.02 0.02 0.12 0.08 0.08 0.12 0.17 0.14 0.13 0.29 0.24 0.23 0.31 0.48 0.68 0.80 0.86 0.96 1.04 0.95 0.91 0.89 0.86 0.82 0.81 0.81 0.86 0.78 0.76 0.75
0.09 0.08 0.07 0.06 0.07 0.15 0.16 0.11 0.12 0.13 0.12 0.10 0.06 0.05 0.03 0.02 0.02 0.07 0.10 0.16 0.15 0.17 0.21 0.29 0.25 0.34 0.47 0.56 0.61 0.66 0.69 0.77 0.82 0.84 0.77 0.73 0.66 0.62 0.62 0.60 0.62 0.65 0.66 0.68
0.02 0.02 0.04 0.09 0.07 0.05 0.05 0.08 0.15 0.11 0.07 0.08 0.12 0.04 0.04 0.05 0.06 0.11 0.15 0.14 0.15 0.16 0.24 0.34 0.41 0.53 0.54 0.53 0.52 0.52 0.50 0.49 0.53 0.52 0.52 0.51 0.49 0.50 0.51 0.51 0.51 0.50 0.52 0.50